FW0880 Weather Reports


time (UTC)temp
C
wind
direction
speed
KPH
gust
KPH
rain 1hr
cm
rain 24hr
cm
rain mn
cm
humidity
%
barometer
mb
20260903141522 28 280 0.0 0.0 0.00 0.00 0.00 82 1010.1
20260903141009 27 280 0.0 1.6 0.00 0.00 0.00 82 1010.1
20260903140506 27 280 0.0 3.2 0.00 0.00 0.00 82 1010.0
20260903140012 27 280 0.0 3.2 0.00 0.00 0.00 83 1010.0
20260903135510 27 280 1.6 3.2 0.00 0.00 0.00 83 1009.9
20260903135019 27 280 0.0 0.0 0.00 0.00 0.00 84 1009.9
20260903134518 27 280 0.0 3.2 0.00 0.00 0.00 84 1009.8
20260903134019 27 280 0.0 3.2 0.00 0.00 0.00 84 1009.8
20260903133522 27 279 0.0 3.2 0.00 0.00 0.00 85 1009.8
20260903133022 27 355 0.0 3.2 0.00 0.00 0.00 85 1009.7
20260903132520 27 355 0.0 3.2 0.00 0.00 0.00 85 1009.7
20260903132009 27 355 0.0 1.6 0.00 0.00 0.00 85 1009.6
20260903131508 27 355 0.0 3.2 0.00 0.00 0.00 85 1009.7
20260903131013 27 355 0.0 3.2 0.00 0.00 0.00 85 1009.6
20260903130510 27 355 0.0 3.2 0.00 0.00 0.00 85 1009.6
20260903130017 27 355 0.0 3.2 0.00 0.00 0.00 85 1009.7
20260903125516 27 355 0.0 3.2 0.00 0.00 0.00 85 1009.6
20260903125016 27 355 0.0 0.0 0.00 0.00 0.00 84 1009.6
20260903124516 27 355 0.0 0.0 0.00 0.00 0.00 84 1009.5
20260903124022 27 355 0.0 1.6 0.00 0.00 0.00 84 1009.5
20260903123525 27 355 0.0 3.2 0.00 0.00 0.00 84 1009.6
20260903123006 27 355 0.0 4.8 0.00 0.00 0.00 84 1009.6
20260903122507 27 355 1.6 4.8 0.00 0.00 0.00 84 1009.6
20260903122011 27 355 0.0 1.6 0.00 0.00 0.00 84 1009.6
20260903121526 27 355 0.0 3.2 0.00 0.00 0.00 84 1009.6
20260903121017 27 355 0.0 3.2 0.00 0.00 0.00 84 1009.5
20260903120517 27 355 0.0 3.2 0.00 0.00 0.00 84 1009.5
20260903120037 27 355 0.0 4.8 0.00 0.00 0.00 83 1009.4
20260903115523 27 355 1.6 4.8 0.00 0.00 0.00 83 1009.3
20260903115028 27 338 1.6 4.8 0.00 0.00 0.00 83 1009.2
20260903114528 27 335 0.0 4.8 0.00 0.00 0.00 83 1009.1
20260903114007 27 335 1.6 4.8 0.00 0.00 0.00 83 1009.1
20260903113507 27 350 0.0 3.2 0.00 0.00 0.00 83 1009.1
20260903113018 27 351 0.0 3.2 0.00 0.00 0.00 83 1009.0
20260903112510 27 351 0.0 3.2 0.00 0.00 0.00 83 1009.0
20260903112017 27 351 1.6 3.2 0.00 0.00 0.00 83 1008.9
20260903111515 27 351 1.6 4.8 0.00 0.00 0.00 82 1008.9
20260903111019 27 351 1.6 4.8 0.00 0.00 0.00 82 1008.8
20260903110519 27 351 3.2 4.8 0.00 0.00 0.00 82 1008.7
20260903110025 27 341 0.0 0.0 0.00 0.00 0.00 82 1008.7
20260903105524 27 338 0.0 0.0 0.00 0.00 0.00 82 1008.7
20260903105006 27 338 0.0 1.6 0.00 0.00 0.00 82 1008.7
20260903104505 27 338 0.0 3.2 0.00 0.00 0.00 82 1008.7
20260903104009 27 338 0.0 3.2 0.00 0.00 0.00 82 1008.8
20260903103509 27 337 1.6 3.2 0.00 0.00 0.00 82 1008.8
20260903103017 27 337 0.0 3.2 0.00 0.00 0.00 82 1008.8
20260903102516 27 337 1.6 6.4 0.00 0.00 0.00 82 1008.8
20260903102018 27 338 1.6 6.4 0.00 0.00 0.00 82 1008.8
20260903101525 27 5 3.2 4.8 0.00 0.00 0.00 83 1008.9
20260903101018 27 15 0.0 3.2 0.00 0.00 0.00 83 1008.8
20260903100517 27 15 0.0 1.6 0.00 0.00 0.00 83 1008.8
20260903100031 27 15 0.0 0.0 0.00 0.00 0.00 83 1008.9
20260903095521 27 15 0.0 0.0 0.00 0.00 0.00 83 1008.8
20260903095006 27 15 0.0 0.0 0.00 0.00 0.00 83 1008.8
20260903094514 27 15 0.0 0.0 0.00 0.00 0.00 83 1008.8
20260903094008 27 15 0.0 3.2 0.00 0.00 0.00 83 1008.9
20260903093511 27 15 0.0 3.2 0.00 0.00 0.00 83 1009.0
20260903093017 27 15 0.0 3.2 0.00 0.00 0.00 83 1008.9
20260903092517 27 15 1.6 3.2 0.00 0.00 0.00 83 1008.9
20260903092020 27 15 0.0 0.0 0.00 0.00 0.00 83 1008.9
20260903091518 27 15 0.0 0.0 0.00 0.00 0.00 83 1008.9
20260903091019 27 15 0.0 0.0 0.00 0.00 0.00 84 1008.9
20260903090518 27 15 0.0 0.0 0.00 0.00 0.00 84 1009.0
20260903090005 27 15 0.0 0.0 0.00 0.00 0.00 84 1008.9
20260903085504 27 15 0.0 0.0 0.00 0.00 0.00 84 1009.0
20260903085009 28 15 0.0 0.0 0.00 0.00 0.00 84 1009.0
20260903084508 28 15 0.0 0.0 0.00 0.00 0.00 84 1009.1
20260903084012 27 15 0.0 0.0 0.00 0.00 0.00 84 1009.1
20260903083515 27 15 0.0 0.0 0.00 0.00 0.00 84 1009.1
20260903083016 27 15 0.0 0.0 0.00 0.00 0.00 84 1009.0
20260903082515 27 15 0.0 0.0 0.00 0.00 0.00 84 1009.0
20260903082022 27 15 0.0 0.0 0.00 0.00 0.00 84 1009.1
20260903081524 27 15 0.0 0.0 0.00 0.00 0.00 84 1009.1
20260903081006 28 15 0.0 0.0 0.00 0.00 0.00 83 1009.2
20260903080504 28 15 0.0 0.0 0.00 0.00 0.00 83 1009.2
20260903080011 28 15 0.0 0.0 0.00 0.00 0.00 83 1009.2
20260903075511 28 15 0.0 3.2 0.00 0.00 0.00 83 1009.3
20260903075021 28 15 0.0 4.8 0.00 0.00 0.00 83 1009.4
20260903074518 28 15 0.0 4.8 0.00 0.00 0.00 83 1009.4
20260903074020 28 15 1.6 4.8 0.00 0.00 0.00 83 1009.4
20260903073521 28 15 0.0 4.8 0.00 0.00 0.00 83 1009.6
20260903073031 28 15 1.6 4.8 0.00 0.00 0.00 82 1009.7
20260903072522 28 15 1.6 4.8 0.00 0.00 0.00 82 1009.6
20260903072012 28 15 3.2 4.8 0.00 0.00 0.00 82 1009.7
20260903071515 28 28 1.6 4.8 0.00 0.00 0.00 82 1009.6
20260903071017 28 32 1.6 3.2 0.00 0.00 0.00 81 1009.7
20260903070514 28 32 1.6 4.8 0.00 0.00 0.00 81 1009.7
20260903070022 28 61 1.6 4.8 0.00 0.00 0.00 81 1009.8
20260903065518 28 115 1.6 3.2 0.00 0.00 0.00 81 1009.8
20260903065026 28 116 0.0 1.6 0.00 0.00 0.00 81 1009.8
20260903064524 28 116 0.0 1.6 0.00 0.00 0.00 81 1009.8
20260903064007 28 116 0.0 1.6 0.00 0.00 0.00 81 1009.8
20260903063510 28 116 0.0 3.2 0.00 0.00 0.00 81 1009.9
20260903063013 28 116 0.0 3.2 0.00 0.00 0.00 81 1009.8
20260903062511 28 116 0.0 3.2 0.00 0.00 0.00 81 1009.9
20260903062023 28 116 0.0 3.2 0.00 0.00 0.00 81 1009.9
20260903061518 28 116 0.0 1.6 0.00 0.00 0.00 81 1009.9
20260903061026 28 116 0.0 1.6 0.00 0.00 0.00 81 1009.9
20260903060520 28 116 0.0 1.6 0.00 0.00 0.00 81 1009.9
20260903060006 28 116 0.0 1.6 0.00 0.00 0.00 81 1009.9
20260903055505 28 116 0.0 0.0 0.00 0.03 0.00 80 1009.9
20260903055014 28 116 0.0 1.6 0.00 0.03 0.00 80 1009.9
20260903054509 28 116 0.0 3.2 0.00 0.03 0.00 80 1009.9
20260903054021 29 116 0.0 1.6 0.00 0.03 0.00 80 1009.9
20260903053518 29 116 0.0 3.2 0.00 0.03 0.00 80 1010.0
20260903053022 29 116 0.0 3.2 0.00 0.03 0.00 80 1010.1
20260903052519 29 34 0.0 0.0 0.00 0.03 0.00 80 1010.1
20260903052024 29 34 0.0 1.6 0.00 0.03 0.00 80 1010.2
20260903051539 29 34 0.0 3.2 0.00 0.03 0.00 80 1010.3
20260903051009 29 34 0.0 3.2 0.00 0.03 0.00 80 1010.3
20260903050509 29 34 0.0 1.6 0.00 0.03 0.00 79 1010.3
20260903050015 29 34 0.0 3.2 0.00 0.03 0.00 79 1010.3
20260903045515 29 34 0.0 3.2 0.00 0.05 0.00 79 1010.4
20260903045021 29 332 0.0 1.6 0.00 0.05 0.00 79 1010.3
20260903044520 29 332 0.0 0.0 0.00 0.05 0.00 79 1010.3
20260903044025 30 332 0.0 0.0 0.00 0.05 0.00 79 1010.3
20260903043526 29 332 0.0 1.6 0.00 0.05 0.00 79 1010.3
20260903043007 29 332 0.0 1.6 0.00 0.05 0.00 79 1010.2
20260903042508 29 332 0.0 3.2 0.00 0.05 0.00 78 1010.3
20260903042011 29 332 0.0 3.2 0.00 0.05 0.00 78 1010.3
20260903041518 30 331 1.6 3.2 0.00 0.05 0.00 78 1010.3
20260903041018 29 331 0.0 3.2 0.00 0.05 0.00 78 1010.4
20260903040518 29 331 0.0 6.4 0.00 0.05 0.00 78 1010.3
20260903040013 30 329 3.2 6.4 0.00 0.05 0.00 78 1010.4
20260903035504 30 310 3.2 6.4 0.00 0.18 0.00 78 1010.3
20260903035008 30 323 1.6 6.4 0.00 0.18 0.00 78 1010.3
20260903034508 30 344 1.6 6.4 0.00 0.18 0.00 78 1010.2
20260903034017 30 346 1.6 6.4 0.00 0.18 0.00 78 1010.1
20260903033518 30 5 0.0 4.8 0.00 0.18 0.00 78 1010.2
20260903033019 30 5 1.6 4.8 0.00 0.18 0.00 78 1010.0
20260903032517 30 33 0.0 3.2 0.00 0.18 0.00 78 1010.1
20260903032018 30 33 0.0 3.2 0.00 0.18 0.00 79 1009.9
20260903031518 30 33 0.0 3.2 0.00 0.18 0.00 79 1009.9
20260903031017 30 36 0.0 3.2 0.00 0.18 0.00 79 1009.9
20260903030518 30 36 0.0 3.2 0.00 0.18 0.00 79 1009.8
20260903030007 30 36 0.0 1.6 0.00 0.18 0.00 79 1009.7
20260903025507 30 36 0.0 1.6 0.00 0.58 0.00 79 1009.6
20260903025011 30 35 0.0 0.0 0.00 0.58 0.00 79 1009.7
20260903024511 30 36 0.0 1.6 0.00 0.58 0.00 79 1009.7
20260903024014 30 36 0.0 3.2 0.00 0.58 0.00 79 1009.8
20260903023513 29 36 0.0 3.2 0.00 0.58 0.00 79 1009.7
20260903023021 29 36 0.0 3.2 0.00 0.58 0.00 80 1009.7
20260903022520 29 35 0.0 1.6 0.00 0.58 0.00 80 1009.7
20260903022005 29 35 0.0 3.2 0.00 0.58 0.00 80 1009.6
20260903021506 29 35 0.0 3.2 0.00 0.58 0.00 80 1009.7
20260903021029 29 34 0.0 4.8 0.00 0.58 0.00 80 1009.6
20260903020528 29 32 1.6 6.4 0.00 0.58 0.00 79 1009.6
20260903020144 29 348 1.6 8.0 0.00 0.58 0.00 79 1009.6
20260903015535 29 349 4.8 8.0 0.00 0.91 0.00 78 1009.4
20260903015043 30 346 4.8 8.0 0.00 0.91 0.00 78 1009.3
20260903014547 30 60 1.6 6.4 0.00 0.91 0.00 77 1009.2
20260903014007 30 67 1.6 8.0 0.00 0.91 0.00 76 1009.1
20260903013505 30 38 0.0 12.9 0.00 0.91 0.00 76 1009.0
20260903013009 30 302 4.8 14.5 0.00 0.91 0.00 74 1008.8
20260903012508 30 316 6.4 16.1 0.00 0.91 0.00 73 1008.7
20260903012017 30 325 6.4 16.1 0.00 0.91 0.00 72 1008.6
20260903011518 31 316 6.4 14.5 0.00 0.91 0.00 72 1008.5
20260903011018 31 346 6.4 12.9 0.00 0.91 0.00 71 1008.5
20260903010517 31 322 3.2 9.7 0.00 0.91 0.00 71 1008.4
20260903010022 31 17 1.6 9.7 0.00 0.91 0.00 72 1008.3
20260903005522 31 55 3.2 9.7 0.00 1.60 0.00 71 1008.2
20260903005011 31 13 1.6 9.7 0.00 1.60 0.00 71 1008.2
20260903004511 31 5 3.2 8.0 0.00 1.60 0.00 71 1008.2
20260903004015 31 30 1.6 8.0 0.00 1.60 0.00 70 1008.1
20260903003516 31 62 3.2 14.5 0.00 1.60 0.00 70 1008.0
20260903003020 31 42 3.2 14.5 0.00 1.60 0.00 70 1008.0
20260903002520 31 69 3.2 14.5 0.00 1.60 0.00 70 1008.1
20260903002006 31 86 6.4 16.1 0.00 1.60 0.00 69 1008.1
20260903001506 32 33 4.8 16.1 0.00 1.60 0.00 69 1008.0
20260903001009 32 355 3.2 17.7 0.00 1.60 0.00 69 1008.0
20260903000509 32 18 8.0 17.7 0.00 1.60 0.00 67 1007.9
20260903000015 33 28 4.8 9.7 0.00 1.60 0.00 67 1007.8
20260902235515 33 30 3.2 12.9 0.00 1.93 0.00 68 1007.8
20260902235020 33 299 4.8 12.9 0.00 1.93 0.00 67 1007.8
20260902234522 33 49 3.2 17.7 0.00 1.93 0.00 67 1007.8
20260902234023 32 31 4.8 17.7 0.00 1.93 0.00 68 1007.8
20260902233523 33 13 4.8 12.9 0.00 1.93 0.00 68 1007.9
20260902233007 33 42 3.2 20.9 0.00 1.93 0.00 69 1007.9
20260902232510 33 46 3.2 20.9 0.00 1.93 0.00 70 1007.9
20260902232013 33 46 3.2 9.7 0.00 1.93 0.00 72 1007.8
20260902231512 33 330 3.2 9.7 0.00 1.93 0.00 73 1007.8
20260902231021 33 355 3.2 11.3 0.00 1.93 0.00 73 1007.8
20260902230518 33 279 3.2 14.5 0.00 1.93 0.00 74 1007.8
20260902230006 33 79 6.4 14.5 0.00 1.93 0.00 73 1007.9
20260902225505 33 351 4.8 14.5 0.00 2.11 0.00 72 1007.9
20260902225011 33 322 4.8 14.5 0.00 2.11 0.00 71 1007.9
20260902224508 33 30 4.8 14.5 0.00 2.11 0.00 69 1007.8
20260902224016 33 316 4.8 12.9 0.00 2.11 0.00 68 1007.9
20260902223518 33 325 4.8 9.7 0.00 2.11 0.00 67 1007.9
20260902223025 33 360 6.4 16.1 0.00 2.11 0.00 65 1007.8
20260902222517 34 38 3.2 16.1 0.00 2.11 0.00 65 1007.7
20260902222027 34 68 4.8 12.9 0.00 2.11 0.00 65 1007.6
20260902221522 34 91 0.0 9.7 0.00 2.11 0.00 66 1007.6
20260902221010 33 30 3.2 12.9 0.00 2.11 0.00 65 1007.6
20260902220511 33 44 3.2 8.0 0.00 2.11 0.00 65 1007.7
20260902220017 33 72 3.2 8.0 0.00 2.11 0.00 66 1007.8
20260902215518 33 36 3.2 16.1 0.00 2.11 0.00 66 1007.9
20260902215018 33 140 6.4 16.1 0.00 2.11 0.00 68 1008.1
20260902214517 33 173 4.8 11.3 0.00 2.11 0.00 66 1008.4
20260902214023 33 173 1.6 8.0 0.00 2.11 0.00 64 1008.6
20260902213522 33 138 0.0 9.7 0.00 2.11 0.00 63 1008.7
20260902213131 34 138 1.6 9.7 0.00 2.11 0.00 64 1008.6
20260902212507 33 26 0.0 9.7 0.00 2.11 0.00 65 1008.7
20260902212012 33 344 3.2 9.7 0.00 2.11 0.00 66 1008.6
20260902211512 33 55 3.2 8.0 0.00 2.11 0.00 67 1008.6
20260902211021 33 360 3.2 9.7 0.00 2.11 0.00 66 1008.7
20260902210519 34 355 4.8 9.7 0.00 2.11 0.00 66 1008.8
20260902210023 34 5 3.2 8.0 0.00 2.11 0.00 64 1008.9
20260902205523 34 72 3.2 12.9 0.00 2.11 0.00 64 1009.1
20260902205008 34 310 6.4 14.5 0.00 2.11 0.00 64 1009.0
20260902204512 34 331 4.8 14.5 0.00 2.11 0.00 66 1009.1
20260902204014 34 298 6.4 14.5 0.00 2.11 0.00 65 1009.2
20260902203510 34 252 6.4 17.7 0.00 2.11 0.00 63 1009.2
20260902203021 35 278 8.0 17.7 0.00 2.11 0.00 63 1009.2
20260902202518 35 288 3.2 14.5 0.00 2.11 0.00 63 1009.1
20260902202023 35 286 8.0 12.9 0.00 2.11 0.00 61 1009.1
20260902201523 35 332 3.2 12.9 0.00 2.11 0.00 61 1009.1
20260902201005 35 342 6.4 12.9 0.00 2.11 0.00 61 1009.2
20260902200505 35 331 4.8 12.9 0.00 2.11 0.00 61 1009.2
20260902200021 35 214 3.2 11.3 0.00 2.11 0.00 60 1009.2
20260902195514 35 258 4.8 11.3 0.00 2.11 0.00 59 1009.2
20260902195018 35 259 1.6 12.9 0.00 2.11 0.00 62 1009.2
20260902194521 34 267 4.8 12.9 0.00 2.11 0.00 61 1009.4
20260902194022 34 327 3.2 12.9 0.00 2.11 0.00 62 1009.4
20260902193521 34 255 4.8 12.9 0.00 2.11 0.00 63 1009.5
20260902193010 34 304 4.8 14.5 0.00 2.11 0.00 63 1009.6
20260902192508 34 223 6.4 14.5 0.00 2.11 0.00 62 1009.6
20260902192013 33 263 4.8 14.5 0.00 2.11 0.00 62 1009.6
20260902191513 33 305 4.8 12.9 0.00 2.11 0.00 61 1009.8
20260902191016 33 277 3.2 12.9 0.00 2.11 0.00 61 1009.9
20260902190516 34 355 3.2 12.9 0.00 2.11 0.00 60 1010.0
20260902190009 33 252 3.2 12.9 0.00 2.11 0.00 62 1010.0
20260902185506 33 277 4.8 9.7 0.00 2.11 0.00 61 1010.1
20260902185009 33 177 4.8 11.3 0.00 2.11 0.00 61 1010.2
20260902184509 33 328 4.8 11.3 0.00 2.11 0.00 62 1010.2
20260902184012 33 236 4.8 11.3 0.00 2.11 0.00 63 1010.2
20260902183511 33 217 3.2 11.3 0.00 2.11 0.00 64 1010.3
20260902183020 33 237 3.2 9.7 0.00 2.11 0.00 63 1010.4
20260902182519 33 276 4.8 9.7 0.00 2.11 0.00 62 1010.5
20260902182006 33 317 3.2 11.3 0.00 2.11 0.00 60 1010.6
20260902181505 33 275 1.6 11.3 0.00 2.11 0.00 61 1010.6
20260902181010 33 256 4.8 11.3 0.00 2.11 0.00 59 1010.6
20260902180508 33 268 1.6 9.7 0.00 2.11 0.00 60 1010.7
20260902180014 33 259 3.2 9.7 0.00 2.11 0.00 60 1010.8
20260902175515 33 250 1.6 4.8 0.00 2.11 0.00 60 1010.9
20260902175021 33 217 0.0 6.4 0.00 2.11 0.00 61 1010.9
20260902174520 32 215 3.2 6.4 0.00 2.11 0.00 60 1010.9
20260902174026 32 210 3.2 6.4 0.00 2.11 0.00 60 1010.9
20260902173525 32 254 1.6 4.8 0.00 2.11 0.00 60 1011.0
20260902173009 32 279 0.0 4.8 0.00 2.11 0.00 67 1011.0
20260902172509 32 276 1.6 4.8 0.00 2.11 0.00 68 1010.9
20260902172020 32 275 1.6 4.8 0.00 2.11 0.00 68 1010.9
20260902171518 32 273 3.2 9.7 0.00 2.11 0.00 70 1010.9
20260902171025 31 261 0.0 6.4 0.00 2.11 0.00 71 1010.9
20260902170521 31 250 3.2 6.4 0.00 2.11 0.00 70 1010.8
20260902170008 31 267 0.0 6.4 0.00 2.11 0.00 71 1010.7
20260902165507 31 261 3.2 9.7 0.00 2.11 0.00 70 1010.6
20260902165016 31 240 3.2 9.7 0.00 2.11 0.00 70 1010.6
20260902164517 31 229 4.8 9.7 0.00 2.11 0.00 69 1010.5
20260902164020 31 263 3.2 9.7 0.00 2.11 0.00 69 1010.5
20260902163518 31 215 3.2 8.0 0.00 2.11 0.00 68 1010.5
20260902163020 32 226 4.8 8.0 0.00 2.11 0.00 66 1010.5
20260902162518 32 247 1.6 8.0 0.00 2.11 0.00 67 1010.4
20260902162025 32 259 1.6 6.4 0.00 2.11 0.00 67 1010.4
20260902161524 32 269 1.6 6.4 0.00 2.11 0.00 69 1010.3
20260902161009 31 207 0.0 1.6 0.00 2.11 0.00 68 1010.3
20260902160507 31 161 0.0 0.0 0.00 2.11 0.00 69 1010.2
20260902160017 31 92 0.0 0.0 0.00 2.11 0.00 69 1010.1
20260902155514 31 90 0.0 0.0 0.00 2.11 0.00 68 1010.1
20260902155023 31 100 0.0 0.0 0.00 2.11 0.00 67 1010.0
20260902154527 31 103 0.0 0.0 0.00 2.11 0.00 68 1010.0
20260902154007 30 103 0.0 0.0 0.00 2.11 0.00 69 1010.0
20260902153508 30 103 0.0 0.0 0.00 2.11 0.00 74 1010.0
20260902153012 30 103 0.0 0.0 0.00 2.11 0.00 74 1010.0
20260902152509 30 103 0.0 0.0 0.00 2.11 0.00 76 1010.0
20260902152021 29 103 0.0 0.0 0.00 2.11 0.00 75 1010.0
20260902151518 29 103 0.0 0.0 0.00 2.11 0.00 75 1010.0
20260902151022 28 103 0.0 0.0 0.00 2.11 0.00 76 1010.0
20260902150621 28 103 0.0 0.0 0.00 2.11 0.00 77 1009.9
20260902150025 28 103 0.0 0.0 0.00 2.11 0.00 77 1009.9
20260902145524 28 103 0.0 0.0 0.00 2.11 0.00 78 1009.9
20260902145009 28 103 0.0 0.0 0.00 2.11 0.00 80 1009.8
20260902144508 27 104 0.0 0.0 0.00 2.11 0.00 83 1009.8
20260902144018 27 104 0.0 0.0 0.00 2.11 0.00 87 1009.7
20260902143516 26 103 0.0 0.0 0.00 2.11 0.00 89 1009.7
20260902143020 26 103 0.0 1.6 0.00 2.11 0.00 91 1009.7
20260902142519 25 103 0.0 3.2 0.00 2.11 0.00 92 1009.7
20260902142023 25 103 0.0 3.2 0.00 2.11 0.00 92 1009.7